Location: Carnoy
(49.9849°N, 2.7558°E)
Time: 21:29:18
(UTC+00:00)

Cosmos 1943 - Pass Details

Date: 24 January 2020
Orbit: 834 x 850 km, 71.0° (Epoch: 18 February)

Event Time Altitude Azimuth Distance (km) Brightness Sun altitude
Rises 18:05:19 0° 333° (NNW) 3,399 6.5 -15.3°
Reaches altitude 10° 18:08:04 10° 344° (NNW) 2,464 5.7 -15.7°
Maximum altitude 18:13:02 31° 46° (NE) 1,453 4.0 -16.5°
Enters shadow 18:14:32 27° 74° (ENE) 1,575 4.0 -16.7°
